This demonstration page uses our WeatherBlox Daily Observations layout. Learn more.

Left ArrowRight Arrow

Hourly Observations for December 13, 2017

Temp ( °F °C ) Dew Point ( °F °C ) Humidity (%) Winds ( mph kmh ) Pressure ( in mb ) Visibility ( mi km ) Precip ( " mm )
12:53 am 00:53 Clear 34 1.1 16 -8.9 48 48 NW 7 11 30.03 1017 10 16 0.00 0.00
1:53 am 01:53 Clear 33 0.6 13 -10.6 43 43 NW 12 19 30.04 1017 10 16 0.00 0.00
2:53 am 02:53 Clear 31 -0.6 13 -10.6 47 47 NW 7 11 30.05 1018 10 16 0.00 0.00
3:53 am 03:53 Clear 31 -0.6 11 -11.7 43 43 VRB 7 11 30.05 1018 10 16 0.00 0.00
4:53 am 04:53 Clear 30 -1.1 10 -12.2 43 43 NW 10 17 30.05 1018 10 16 0.00 0.00
5:53 am 05:53 Clear 29 -1.7 10 -12.2 45 45 NW 7 11 30.06 1018 10 16 0.00 0.00
6:53 am 06:53 Clear 29 -1.7 10 -12.2 45 45 WNW 6 9 30.07 1018 10 16 0.00 0.00
7:53 am 07:53 Sunny 29 -1.7 10 -12.2 45 45 WNW 3 6 30.08 1019 10 16 0.00 0.00
8:53 am 08:53 Sunny 31 -0.6 11 -11.7 43 43 WNW 7 11 30.08 1019 10 16 0.00 0.00
9:53 am 09:53 Sunny 34 1.1 9 -12.8 35 35 WNW 3 6 30.09 1019 10 16 0.00 0.00
10:53 am 10:53 Sunny 36 2.2 8 -13.3 31 31 Calm 30.09 1019 10 16 0.00 0.00
11:53 am 11:53 Sunny 40 4.4 9 -12.8 28 28 VRB 6 9 30.06 1018 10 16 0.00 0.00
12:53 pm 12:53 Sunny 42 5.6 11 -11.7 28 28 SSW 12 19 30.01 1016 10 16 0.00 0.00
1:53 pm 13:53 Sunny 46 7.8 10 -12.2 23 23 SW 7 11 29.97 1015 10 16 0.00 0.00
2:53 pm 14:53 Sunny 47 8.3 9 -12.8 21 21 WSW 8 13 29.94 1014 10 16 0.00 0.00
3:53 pm 15:53 Sunny 49 9.4 11 -11.7 21 21 SW 9 15 29.92 1013 10 16 0.00 0.00
4:53 pm 16:53 Sunny 48 8.9 12 -11.1 23 23 SSW 10 17 29.90 1013 10 16 0.00 0.00
5:53 pm 17:53 Clear 46 7.8 15 -9.4 29 29 SSW 6 9 29.90 1013 10 16 0.00 0.00
6:53 pm 18:53 Clear 44 6.7 17 -8.3 34 34 SSW 5 7 29.89 1012 10 16 0.00 0.00
7:53 pm 19:53 Clear 44 6.7 18 -7.8 35 35 SW 6 9 29.87 1012 10 16 0.00 0.00
8:53 pm 20:53 Clear 42 5.6 20 -6.7 41 41 SW 6 9 29.86 1011 10 16 0.00 0.00
9:53 pm 21:53 Clear 41 5 20 -6.7 43 43 SSW 5 7 29.87 1012 10 16 0.00 0.00
10:53 pm 22:53 Clear 38 3.3 22 -5.6 52 52 Calm 29.88 1012 10 16 0.00 0.00
11:53 pm 23:53 Clear 38 3.3 23 -5 55 55 SSW 3 6 29.88 1012 10 16 0.00 0.00

Powered by AerisWeather